TimeEDT,TemperatureF,Dew PointF,Humidity,Sea Level PressureIn,VisibilityMPH,Wind Direction,Wind SpeedMPH,Gust SpeedMPH,PrecipitationIn,Events,Conditions,WindDirDegrees,DateUTC
12:15 AM,44.6,42.8,93,30.14,10.0,Calm,Calm,-,N/A,,Clear,0,2013-09-15 04:15:00
12:35 AM,44.6,42.8,93,30.13,10.0,Calm,Calm,-,N/A,,Clear,0,2013-09-15 04:35:00
12:55 AM,44.6,42.8,93,30.13,10.0,Calm,Calm,-,N/A,,Clear,0,2013-09-15 04:55:00
1:15 AM,42.8,42.8,100,30.12,10.0,Calm,Calm,-,N/A,,Clear,0,2013-09-15 05:15:00
1:35 AM,42.8,42.8,100,30.13,10.0,Calm,Calm,-,N/A,,Clear,0,2013-09-15 05:35:00
1:55 AM,42.8,42.8,100,30.13,10.0,Calm,Calm,-,N/A,,Clear,0,2013-09-15 05:55:00
2:15 AM,42.8,41.0,93,30.13,10.0,Calm,Calm,-,N/A,,Clear,0,2013-09-15 06:15:00
2:35 AM,42.8,41.0,93,30.14,10.0,Calm,Calm,-,N/A,,Clear,0,2013-09-15 06:35:00
2:55 AM,42.8,41.0,93,30.13,10.0,Calm,Calm,-,N/A,,Clear,0,2013-09-15 06:55:00
3:16 AM,42.8,41.0,93,30.13,10.0,Calm,Calm,-,N/A,,Clear,0,2013-09-15 07:16:00
3:35 AM,41.0,41.0,100,30.13,10.0,Calm,Calm,-,N/A,,Clear,0,2013-09-15 07:35:00
3:55 AM,41.0,41.0,100,30.14,10.0,Calm,Calm,-,N/A,,Clear,0,2013-09-15 07:55:00
4:16 AM,41.0,41.0,100,30.14,10.0,Calm,Calm,-,N/A,,Clear,0,2013-09-15 08:16:00
4:35 AM,41.0,41.0,100,30.14,10.0,Calm,Calm,-,N/A,,Clear,0,2013-09-15 08:35:00
4:55 AM,41.0,41.0,100,30.15,10.0,Calm,Calm,-,N/A,,Clear,0,2013-09-15 08:55:00
5:16 AM,41.0,39.2,93,30.15,10.0,Calm,Calm,-,N/A,,Clear,0,2013-09-15 09:16:00
5:35 AM,41.0,41.0,100,30.15,10.0,Calm,Calm,-,N/A,,Clear,0,2013-09-15 09:35:00
5:55 AM,41.0,39.2,93,30.15,10.0,Calm,Calm,-,N/A,,Clear,0,2013-09-15 09:55:00
6:16 AM,41.0,39.2,93,30.15,10.0,Calm,Calm,-,N/A,,Clear,0,2013-09-15 10:16:00
6:35 AM,41.0,39.2,93,30.15,10.0,Calm,Calm,-,N/A,,Clear,0,2013-09-15 10:35:00
6:55 AM,41.0,39.2,93,30.16,10.0,Calm,Calm,-,N/A,,Clear,0,2013-09-15 10:55:00
7:16 AM,41.0,39.2,93,30.16,10.0,Calm,Calm,-,N/A,,Clear,0,2013-09-15 11:16:00
7:35 AM,42.8,41.0,93,30.16,7.0,Calm,Calm,-,N/A,,Clear,0,2013-09-15 11:35:00
7:55 AM,42.8,42.8,100,30.17,7.0,Calm,Calm,-,N/A,,Clear,0,2013-09-15 11:55:00
8:16 AM,44.6,42.8,93,30.17,7.0,Calm,Calm,-,N/A,,Clear,0,2013-09-15 12:16:00
8:35 AM,46.4,46.4,100,30.16,7.0,Calm,Calm,-,N/A,,Clear,0,2013-09-15 12:35:00
8:55 AM,50.0,48.2,94,30.16,10.0,Calm,Calm,-,N/A,,Clear,0,2013-09-15 12:55:00
9:15 AM,51.8,48.2,88,30.17,10.0,Calm,Calm,-,N/A,,Clear,0,2013-09-15 13:15:00
9:35 AM,53.6,46.4,77,30.17,10.0,Calm,Calm,-,N/A,,Clear,0,2013-09-15 13:35:00
9:56 AM,55.4,48.2,77,30.17,10.0,Calm,Calm,-,N/A,,Clear,0,2013-09-15 13:56:00
10:15 AM,59.0,48.2,67,30.17,10.0,SSW,4.6,-,N/A,,Clear,200,2013-09-15 14:15:00
10:35 AM,60.8,48.2,63,30.17,10.0,SSW,4.6,-,N/A,,Clear,200,2013-09-15 14:35:00
10:56 AM,60.8,48.2,63,30.16,10.0,SW,3.5,-,N/A,,Clear,220,2013-09-15 14:56:00
11:15 AM,62.6,48.2,59,30.16,10.0,WSW,5.8,-,N/A,,Clear,240,2013-09-15 15:15:00
11:35 AM,62.6,46.4,55,30.16,10.0,SSW,4.6,-,N/A,,Clear,210,2013-09-15 15:35:00
11:56 AM,62.6,46.4,55,30.15,10.0,SSW,6.9,-,N/A,,Clear,210,2013-09-15 15:56:00
12:15 PM,64.4,44.6,49,30.15,10.0,SW,5.8,-,N/A,,Clear,230,2013-09-15 16:15:00
12:35 PM,64.4,46.4,52,30.15,10.0,SW,6.9,-,N/A,,Clear,220,2013-09-15 16:35:00
12:55 PM,64.4,44.6,49,30.14,10.0,WSW,4.6,-,N/A,,Clear,240,2013-09-15 16:55:00
1:15 PM,66.2,44.6,46,30.13,10.0,SSW,4.6,-,N/A,,Clear,200,2013-09-15 17:15:00
1:35 PM,68.0,42.8,40,30.12,10.0,South,5.8,-,N/A,,Clear,190,2013-09-15 17:35:00
1:55 PM,68.0,44.6,43,30.12,10.0,South,4.6,-,N/A,,Clear,180,2013-09-15 17:55:00
2:15 PM,68.0,42.8,40,30.12,10.0,South,6.9,-,N/A,,Clear,170,2013-09-15 18:15:00
2:35 PM,68.0,42.8,40,30.11,10.0,SSE,5.8,-,N/A,,Clear,160,2013-09-15 18:35:00
2:55 PM,68.0,42.8,40,30.10,10.0,South,9.2,-,N/A,,Clear,170,2013-09-15 18:55:00
3:16 PM,68.0,42.8,40,30.09,10.0,South,3.5,-,N/A,,Clear,170,2013-09-15 19:16:00
3:35 PM,68.0,42.8,40,30.09,10.0,South,6.9,-,N/A,,Clear,170,2013-09-15 19:35:00
3:55 PM,69.8,42.8,38,30.08,10.0,SSE,4.6,-,N/A,,Clear,160,2013-09-15 19:55:00
4:16 PM,69.8,41.0,35,30.07,10.0,SSE,4.6,-,N/A,,Clear,160,2013-09-15 20:16:00
4:35 PM,69.8,41.0,35,30.07,10.0,South,5.8,-,N/A,,Clear,180,2013-09-15 20:35:00
4:55 PM,71.6,42.8,35,30.07,10.0,SW,5.8,-,N/A,,Clear,220,2013-09-15 20:55:00
5:16 PM,71.6,41.0,33,30.06,10.0,South,4.6,-,N/A,,Clear,190,2013-09-15 21:16:00
5:35 PM,71.6,42.8,35,30.05,10.0,SW,6.9,-,N/A,,Clear,220,2013-09-15 21:35:00
5:55 PM,69.8,42.8,38,30.05,10.0,South,3.5,-,N/A,,Scattered Clouds,190,2013-09-15 21:55:00
6:16 PM,69.8,42.8,38,30.04,10.0,SSW,3.5,-,N/A,,Mostly Cloudy,210,2013-09-15 22:16:00
6:35 PM,69.8,44.6,40,30.05,10.0,SW,3.5,-,N/A,,Overcast,230,2013-09-15 22:35:00
6:55 PM,68.0,46.4,46,30.05,10.0,SW,3.5,-,N/A,,Overcast,230,2013-09-15 22:55:00
7:16 PM,66.2,46.4,49,30.06,10.0,Calm,Calm,-,N/A,,Overcast,0,2013-09-15 23:16:00
7:35 PM,64.4,46.4,52,30.07,10.0,West,3.5,-,N/A,,Overcast,270,2013-09-15 23:35:00
7:56 PM,64.4,46.4,52,30.08,10.0,Calm,Calm,-,N/A,,Overcast,0,2013-09-15 23:56:00
8:15 PM,62.6,51.8,68,30.08,10.0,Calm,Calm,-,N/A,,Mostly Cloudy,0,2013-09-16 00:15:00
8:35 PM,60.8,53.6,77,30.07,10.0,Calm,Calm,-,N/A,,Mostly Cloudy,0,2013-09-16 00:35:00
8:56 PM,60.8,53.6,77,30.07,10.0,Calm,Calm,-,N/A,,Overcast,0,2013-09-16 00:56:00
9:15 PM,60.8,53.6,77,30.07,10.0,Calm,Calm,-,N/A,,Overcast,0,2013-09-16 01:15:00
9:35 PM,60.8,53.6,77,30.07,10.0,Calm,Calm,-,N/A,,Overcast,0,2013-09-16 01:35:00
9:56 PM,60.8,55.4,82,30.08,10.0,WNW,3.5,-,N/A,Rain,Rain,300,2013-09-16 01:56:00
10:15 PM,59.0,53.6,82,30.10,10.0,WNW,4.6,-,0.01,Rain,Light Rain,300,2013-09-16 02:15:00
10:35 PM,59.0,53.6,82,30.10,10.0,West,4.6,-,0.02,Rain,Light Rain,260,2013-09-16 02:35:00
10:55 PM,57.2,53.6,88,30.09,10.0,North,6.9,-,0.03,Rain,Light Rain,360,2013-09-16 02:55:00
11:15 PM,57.2,53.6,88,30.10,10.0,North,8.1,-,N/A,Rain,Light Rain,350,2013-09-16 03:15:00
11:36 PM,57.2,53.6,88,30.11,10.0,North,6.9,-,0.01,,Drizzle,350,2013-09-16 03:36:00
11:55 PM,55.4,53.6,94,30.12,10.0,North,9.2,-,0.01,,Overcast,10,2013-09-16 03:55:00